This demonstration page uses our WeatherBlox Daily Observations layout. Learn more.

Left ArrowRight Arrow

Hourly Observations for September 12, 2018

Temp ( °F °C ) Dew Point ( °F °C ) Humidity (%) Winds ( mph kmh ) Pressure ( in mb ) Visibility ( mi km ) Precip ( " mm )
12:54 am 00:54 Clear 63 17.2 60 15.6 90 90 S 8 13 29.98 1015 10 16 N/A
1:54 am 01:54 Clear 63 17.2 60 15.6 90 90 SSE 8 13 29.99 1016 10 16 N/A
2:54 am 02:54 Clear 62 16.7 59 15 90 90 S 5 7 30.00 1016 10 16 N/A
3:54 am 03:54 Clear 61 16.1 58 14.4 90 90 S 6 9 30.00 1016 10 16 N/A
4:54 am 04:54 Clear 60 15.6 58 14.4 93 93 S 8 13 30.00 1016 10 16 N/A
5:54 am 05:54 Clear 60 15.6 58 14.4 93 93 S 7 11 30.01 1016 10 16 N/A
6:54 am 06:54 Clear 60 15.6 58 14.4 93 93 S 9 15 30.01 1016 10 16 N/A
7:54 am 07:54 Sunny 62 16.7 59 15 90 90 S 8 13 30.03 1017 10 16 N/A
8:54 am 08:54 Sunny 67 19.4 61 16.1 81 81 S 10 17 30.03 1017 10 16 N/A
9:54 am 09:54 Sunny 72 22.2 63 17.2 73 73 S 13 20 30.02 1017 10 16 N/A
10:54 am 10:54 Sunny 77 25 64 17.8 64 64 S 16 26 30.02 1017 10 16 N/A
11:54 am 11:54 Partly Cloudy 77 25 62 16.7 60 60 S 18 30 30.02 1017 10 16 N/A
12:54 pm 12:54 Partly Cloudy 80 26.7 61 16.1 52 52 SSE 21 33 30.01 1016 10 16 N/A
1:54 pm 13:54 Mostly Cloudy 82 27.8 62 16.7 51 51 S 20 31 29.99 1016 10 16 N/A
2:54 pm 14:54 Partly Cloudy 82 27.8 62 16.7 51 51 S 18 30 29.98 1015 10 16 N/A
3:54 pm 15:54 Partly Cloudy 81 27.2 61 16.1 51 51 SSE 20 31 29.96 1015 10 16 N/A
4:54 pm 16:54 Partly Cloudy 80 26.7 61 16.1 52 52 SSE 23 37 29.96 1014 10 16 N/A
5:54 pm 17:54 Mostly Sunny 80 26.7 61 16.1 52 52 S 16 26 29.95 1014 10 16 N/A
6:54 pm 18:54 Partly Cloudy 78 25.6 62 16.7 58 58 SSE 12 19 29.95 1014 10 16 N/A
7:54 pm 19:54 Clear 75 23.9 61 16.1 62 62 SSE 10 17 29.95 1014 10 16 N/A
8:54 pm 20:54 Clear 74 23.3 61 16.1 64 64 SSE 13 20 29.95 1014 10 16 N/A
9:54 pm 21:54 Mostly Clear 72 22.2 61 16.1 68 68 SSE 16 26 29.96 1015 10 16 N/A
10:54 pm 22:54 Clear 70 21.1 62 16.7 76 76 SSE 12 19 29.97 1015 10 16 N/A
11:54 pm 23:54 Clear 69 20.6 63 17.2 81 81 SSE 12 19 29.98 1015 10 16 N/A

Powered by AerisWeather